ENT1341 EPKT-DTNH

Flight info

Callsign ENT1341
Flight time 2h 22m
Altitude 38000
Route TUSIN DCT MIKOV DCT INSAX DCT PETOV DCT XAMIT/N0443F370 DCT PININ DCT TUNEX UM738 CBN/N0366F230 G727 ATLEL
Aircraft B38M/M-SDGHIRWXYJ1J4J7/EB1

Departure

Time 2026-05-04 00:31
Airport Katowice Wojciech Korfanty International Airport (EPKT)

Arrival

Time 2026-05-04 02:54
Airport Enfidha - Hammamet International Airport (DTNH)
Time Latitude Longitude Altitude Speed Heading
2026-05-04 00:05 50.47146 19.09079 1001 ft 0 kts 180°
2026-05-04 00:22 50.47160 19.09079 1003 ft 4 kts 180°
2026-05-04 00:22 50.47187 19.09079 1001 ft 4 kts 180°
2026-05-04 00:22 50.47209 19.09079 1001 ft 4 kts 172°
2026-05-04 00:23 50.47228 19.09063 1001 ft 4 kts 113°
2026-05-04 00:23 50.47231 19.09026 1001 ft 4 kts 90°
2026-05-04 00:23 50.47231 19.09003 1001 ft 1 kts 90°
2026-05-04 00:27 50.47231 19.09007 1001 ft 2 kts 90°
2026-05-04 00:27 50.47231 19.09105 1006 ft 17 kts 90°
2026-05-04 00:28 50.47230 19.09346 1006 ft 25 kts 90°
2026-05-04 00:28 50.47229 19.09627 1006 ft 26 kts 90°
2026-05-04 00:28 50.47228 19.09887 1005 ft 18 kts 91°
2026-05-04 00:28 50.47235 19.10009 1003 ft 10 kts 68°
2026-05-04 00:29 50.47275 19.10103 1006 ft 11 kts 52°
2026-05-04 00:29 50.47326 19.10206 1001 ft 13 kts 52°
2026-05-04 00:29 50.47392 19.10340 1001 ft 18 kts 52°
2026-05-04 00:29 50.47466 19.10445 1001 ft 13 kts 12°
2026-05-04 00:30 50.47557 19.10439 1002 ft 11 kts 339°
2026-05-04 00:30 50.47593 19.10344 1003 ft 11 kts 275°
2026-05-04 00:30 50.47594 19.10181 1000 ft 30 kts 269°
2026-05-04 00:30 50.47595 19.09424 1002 ft 106 kts 270°
2026-05-04 00:31 50.47599 19.07916 1003 ft 167 kts 269°
2026-05-04 00:31 50.47611 19.05985 1547 ft 181 kts 268°
2026-05-04 00:31 50.47620 19.04012 2428 ft 186 kts 263°
2026-05-04 00:31 50.47616 19.01845 2931 ft 211 kts 264°
2026-05-04 00:32 50.47609 18.99427 3578 ft 230 kts 262°
2026-05-04 00:32 50.47146 18.96988 4209 ft 243 kts 235°
2026-05-04 00:32 50.45911 18.95068 4837 ft 262 kts 211°
2026-05-04 00:32 50.44163 18.93926 5435 ft 282 kts 201°
2026-05-04 00:33 50.42292 18.92805 6242 ft 291 kts 202°
2026-05-04 00:33 50.38486 18.90464 8047 ft 301 kts 202°
2026-05-04 00:33 50.36526 18.89247 8966 ft 305 kts 202°
2026-05-04 00:34 50.34535 18.88017 9837 ft 310 kts 202°
2026-05-04 00:34 50.32517 18.86750 10636 ft 315 kts 202°
2026-05-04 00:34 50.30471 18.85471 11434 ft 319 kts 202°
2026-05-04 00:34 50.28394 18.84176 12209 ft 323 kts 202°
2026-05-04 00:35 50.26291 18.82865 12978 ft 328 kts 202°
2026-05-04 00:35 50.24157 18.81538 13717 ft 333 kts 202°
2026-05-04 00:35 50.21993 18.80194 14409 ft 336 kts 202°
2026-05-04 00:35 50.19801 18.78834 15068 ft 340 kts 202°
2026-05-04 00:36 50.17590 18.77464 15720 ft 344 kts 202°
2026-05-04 00:36 50.15355 18.76079 16353 ft 348 kts 202°
2026-05-04 00:36 50.13094 18.74682 16983 ft 352 kts 202°
2026-05-04 00:36 50.10806 18.73269 17599 ft 355 kts 202°
2026-05-04 00:37 50.08495 18.71843 18221 ft 359 kts 202°
2026-05-04 00:37 50.06165 18.70406 18747 ft 362 kts 202°
2026-05-04 00:37 50.03808 18.68956 19247 ft 366 kts 202°
2026-05-04 00:37 50.01460 18.67511 19738 ft 369 kts 202°
2026-05-04 00:38 49.99058 18.66037 20252 ft 372 kts 202°
2026-05-04 00:38 49.96638 18.64551 20746 ft 375 kts 202°
2026-05-04 00:38 49.94199 18.63058 21244 ft 379 kts 202°
2026-05-04 00:38 49.91737 18.61552 21742 ft 382 kts 202°
2026-05-04 00:39 49.89258 18.60035 22220 ft 385 kts 202°
2026-05-04 00:39 49.86754 18.58489 22721 ft 388 kts 205°
2026-05-04 00:39 49.84511 18.56283 23188 ft 388 kts 224°
2026-05-04 00:39 49.82701 18.53180 23660 ft 390 kts 231°
2026-05-04 00:40 49.80948 18.49948 24059 ft 393 kts 231°
2026-05-04 00:40 49.79200 18.46688 24474 ft 395 kts 232°
2026-05-04 00:40 49.77448 18.43391 24864 ft 398 kts 232°
2026-05-04 00:40 49.75686 18.40060 25257 ft 401 kts 232°
2026-05-04 00:41 49.73915 18.36710 25664 ft 404 kts 232°
2026-05-04 00:41 49.72128 18.33331 26067 ft 406 kts 232°
2026-05-04 00:41 49.70329 18.29938 26479 ft 408 kts 232°
2026-05-04 00:41 49.68525 18.26534 26872 ft 411 kts 232°
2026-05-04 00:42 49.66733 18.23154 27236 ft 413 kts 232°
2026-05-04 00:42 49.64906 18.19722 27608 ft 416 kts 232°
2026-05-04 00:42 49.63060 18.16259 27937 ft 419 kts 232°
2026-05-04 00:42 49.61205 18.12778 28305 ft 421 kts 232°
2026-05-04 00:43 49.59338 18.09282 28666 ft 424 kts 232°
2026-05-04 00:43 49.57454 18.05755 28999 ft 427 kts 232°
2026-05-04 00:43 49.55558 18.02215 29337 ft 429 kts 231°
2026-05-04 00:43 49.53655 17.98660 29679 ft 432 kts 232°
2026-05-04 00:44 49.51734 17.95081 30015 ft 434 kts 232°
2026-05-04 00:44 49.50455 17.92702 30200 ft 436 kts 232°
2026-05-04 00:44 49.48515 17.89097 30481 ft 438 kts 232°
2026-05-04 00:44 49.46567 17.85481 30769 ft 440 kts 232°
2026-05-04 00:45 49.44609 17.81852 31043 ft 442 kts 232°
2026-05-04 00:45 49.42641 17.78210 31331 ft 444 kts 232°
2026-05-04 00:45 49.40664 17.74554 31594 ft 446 kts 231°
2026-05-04 00:45 49.38671 17.70875 31865 ft 448 kts 231°
2026-05-04 00:46 49.36673 17.67190 32136 ft 450 kts 231°
2026-05-04 00:46 49.34661 17.63486 32395 ft 452 kts 231°
2026-05-04 00:46 49.32644 17.59782 32660 ft 454 kts 231°
2026-05-04 00:46 49.30621 17.56067 32999 ft 453 kts 231°
2026-05-04 00:47 49.28601 17.52364 33339 ft 453 kts 231°
2026-05-04 00:47 49.26579 17.48662 33658 ft 453 kts 231°
2026-05-04 00:47 49.24553 17.44960 33991 ft 453 kts 231°
2026-05-04 00:47 49.22532 17.41271 34296 ft 452 kts 231°
2026-05-04 00:48 49.20508 17.37580 34606 ft 451 kts 231°
2026-05-04 00:48 49.18513 17.33949 34921 ft 450 kts 231°
2026-05-04 00:48 49.16502 17.30291 35247 ft 449 kts 231°
2026-05-04 00:48 49.14491 17.26640 35548 ft 447 kts 231°
2026-05-04 00:49 49.12490 17.23013 35835 ft 446 kts 231°
2026-05-04 00:49 49.10486 17.19385 36087 ft 446 kts 231°
2026-05-04 00:49 49.08489 17.15775 36346 ft 445 kts 231°
2026-05-04 00:49 49.06493 17.12171 36617 ft 444 kts 231°
2026-05-04 00:50 49.04499 17.08578 36874 ft 443 kts 231°
2026-05-04 00:50 49.02506 17.04990 37119 ft 442 kts 231°
2026-05-04 00:50 49.00521 17.01418 37356 ft 441 kts 231°
2026-05-04 00:50 48.98563 16.97902 37587 ft 440 kts 231°
2026-05-04 00:51 48.96559 16.94309 37820 ft 439 kts 231°
2026-05-04 00:51 48.94606 16.90813 38007 ft 439 kts 231°
2026-05-04 00:51 48.92624 16.87267 38066 ft 439 kts 231°
2026-05-04 00:52 48.88685 16.80236 38055 ft 436 kts 231°
2026-05-04 00:52 48.84744 16.73216 38045 ft 437 kts 231°
2026-05-04 00:53 48.80781 16.66232 38034 ft 437 kts 226°
2026-05-04 00:53 48.78410 16.63369 38029 ft 438 kts 210°
2026-05-04 00:53 48.75599 16.61606 38047 ft 441 kts 195°
2026-05-04 00:54 48.69587 16.59403 38039 ft 446 kts 194°
2026-05-04 00:54 48.63516 16.57397 38036 ft 447 kts 194°
2026-05-04 00:55 48.57420 16.55472 38031 ft 448 kts 193°
2026-05-04 00:55 48.51367 16.53576 38035 ft 447 kts 193°
2026-05-04 00:56 48.45271 16.51672 38037 ft 447 kts 193°
2026-05-04 00:56 48.39180 16.49771 38029 ft 447 kts 193°
2026-05-04 00:57 48.33086 16.47879 38021 ft 447 kts 193°
2026-05-04 00:57 48.26980 16.45984 38029 ft 448 kts 193°
2026-05-04 00:58 48.20872 16.44094 38022 ft 448 kts 193°
2026-05-04 00:58 48.14757 16.42208 38019 ft 448 kts 193°
2026-05-04 00:59 48.08641 16.40326 38018 ft 449 kts 193°
2026-05-04 00:59 48.02503 16.38440 38041 ft 450 kts 193°
2026-05-04 01:00 47.96364 16.36560 38041 ft 450 kts 193°
2026-05-04 01:00 47.90260 16.34694 38042 ft 450 kts 193°
2026-05-04 01:01 47.84109 16.32821 38044 ft 452 kts 193°
2026-05-04 01:01 47.77936 16.30944 38045 ft 453 kts 193°
2026-05-04 01:02 47.71774 16.29072 38042 ft 451 kts 193°
2026-05-04 01:02 47.65606 16.27205 38055 ft 453 kts 193°
2026-05-04 01:03 47.59442 16.25344 38062 ft 451 kts 193°
2026-05-04 01:03 47.53282 16.23488 38065 ft 452 kts 193°
2026-05-04 01:04 47.47117 16.21640 38065 ft 452 kts 193°
2026-05-04 01:04 47.40965 16.19794 38068 ft 451 kts 193°
2026-05-04 01:05 47.34853 16.17965 38075 ft 451 kts 193°
2026-05-04 01:05 47.28694 16.16129 38074 ft 451 kts 193°
2026-05-04 01:06 47.22526 16.14291 38085 ft 452 kts 193°
2026-05-04 01:06 47.16351 16.12458 38085 ft 452 kts 193°
2026-05-04 01:07 47.10181 16.10631 38084 ft 452 kts 193°
2026-05-04 01:07 47.04012 16.08807 38085 ft 452 kts 193°
2026-05-04 01:08 46.97762 16.07672 38082 ft 453 kts 186°
2026-05-04 01:08 46.91525 16.06774 38088 ft 453 kts 187°
2026-05-04 01:09 46.85247 16.05819 38078 ft 453 kts 187°
2026-05-04 01:09 46.78960 16.04862 38084 ft 454 kts 187°
2026-05-04 01:10 46.72687 16.03906 38084 ft 453 kts 187°
2026-05-04 01:10 46.66406 16.02953 38074 ft 453 kts 187°
2026-05-04 01:11 46.60121 16.01999 38089 ft 454 kts 187°
2026-05-04 01:11 46.53876 16.01055 38093 ft 454 kts 187°
2026-05-04 01:12 46.47584 16.00106 38093 ft 454 kts 187°
2026-05-04 01:12 46.41297 15.99160 38093 ft 454 kts 187°
2026-05-04 01:13 46.35014 15.98216 38094 ft 454 kts 187°
2026-05-04 01:13 46.28816 15.96720 38102 ft 449 kts 198°
2026-05-04 01:14 46.22779 15.94217 38077 ft 451 kts 198°
2026-05-04 01:14 46.16745 15.91728 38097 ft 451 kts 198°
2026-05-04 01:15 46.10710 15.89241 38099 ft 451 kts 198°
2026-05-04 01:15 46.04669 15.86756 38097 ft 451 kts 198°
2026-05-04 01:16 45.98638 15.84280 38098 ft 450 kts 198°
2026-05-04 01:16 45.92645 15.81824 38101 ft 450 kts 198°
2026-05-04 01:17 45.86613 15.79359 38094 ft 450 kts 198°
2026-05-04 01:17 45.80589 15.76902 38101 ft 450 kts 198°
2026-05-04 01:18 45.74561 15.74452 38101 ft 450 kts 198°
2026-05-04 01:18 45.68532 15.72004 38100 ft 450 kts 198°
2026-05-04 01:19 45.62508 15.69564 38100 ft 450 kts 198°
2026-05-04 01:19 45.56485 15.67131 38105 ft 450 kts 198°
2026-05-04 01:20 45.50467 15.64704 38102 ft 450 kts 197°
2026-05-04 01:20 45.44440 15.62280 38103 ft 450 kts 198°
2026-05-04 01:21 45.38416 15.59863 38110 ft 450 kts 198°
2026-05-04 01:21 45.32393 15.57450 38111 ft 450 kts 198°
2026-05-04 01:22 45.26375 15.55044 38111 ft 449 kts 198°
2026-05-04 01:22 45.20357 15.52645 38116 ft 449 kts 198°
2026-05-04 01:23 45.14338 15.50251 38118 ft 449 kts 198°
2026-05-04 01:23 45.08314 15.47856 38117 ft 450 kts 198°
2026-05-04 01:24 45.02277 15.45465 38124 ft 450 kts 198°
2026-05-04 01:24 44.96252 15.43085 38133 ft 450 kts 198°
2026-05-04 01:25 44.90251 15.40720 38115 ft 451 kts 198°
2026-05-04 01:25 44.84197 15.38337 38130 ft 453 kts 198°
2026-05-04 01:26 44.78112 15.35947 38129 ft 453 kts 198°
2026-05-04 01:26 44.72040 15.33566 38116 ft 453 kts 198°
2026-05-04 01:27 44.65957 15.31190 38129 ft 454 kts 198°
2026-05-04 01:27 44.59871 15.28813 38128 ft 454 kts 198°
2026-05-04 01:28 44.53788 15.26447 38107 ft 454 kts 198°
2026-05-04 01:28 44.48696 15.24468 38126 ft 454 kts 198°
2026-05-04 01:29 44.42649 15.22125 38117 ft 454 kts 198°
2026-05-04 01:29 44.36563 15.19769 38111 ft 454 kts 198°
2026-05-04 01:30 44.30478 15.17420 38105 ft 454 kts 198°
2026-05-04 01:30 44.24394 15.15076 38105 ft 454 kts 198°
2026-05-04 01:31 44.18308 15.12736 38105 ft 454 kts 198°
2026-05-04 01:31 44.12220 15.10400 38103 ft 454 kts 198°
2026-05-04 01:32 44.06129 15.08070 38108 ft 454 kts 198°
2026-05-04 01:32 44.00043 15.05745 38101 ft 453 kts 198°
2026-05-04 01:33 43.93958 15.03425 38098 ft 454 kts 198°
2026-05-04 01:33 43.87863 15.01109 38102 ft 454 kts 198°
2026-05-04 01:34 43.81769 14.98797 38106 ft 454 kts 198°
2026-05-04 01:34 43.75675 14.96488 38102 ft 454 kts 198°
2026-05-04 01:35 43.69578 14.94184 38100 ft 454 kts 198°
2026-05-04 01:35 43.63527 14.91901 38100 ft 453 kts 198°
2026-05-04 01:36 43.57459 14.89616 38099 ft 452 kts 198°
2026-05-04 01:36 43.54423 14.88476 37981 ft 453 kts 198°
2026-05-04 01:36 43.51388 14.87337 37715 ft 451 kts 198°
2026-05-04 01:36 43.48319 14.86184 37430 ft 452 kts 198°
2026-05-04 01:37 43.45322 14.85061 37168 ft 452 kts 198°
2026-05-04 01:37 43.42287 14.83924 37060 ft 452 kts 198°
2026-05-04 01:37 43.39245 14.82787 37108 ft 454 kts 198°
2026-05-04 01:38 43.33117 14.80501 37095 ft 455 kts 198°
2026-05-04 01:38 43.30155 14.79055 37086 ft 449 kts 210°
2026-05-04 01:38 43.27372 14.77108 37112 ft 450 kts 210°
2026-05-04 01:39 43.21759 14.73263 37107 ft 451 kts 210°
2026-05-04 01:39 43.16150 14.69399 37102 ft 451 kts 210°
2026-05-04 01:40 43.10540 14.65536 37104 ft 451 kts 210°
2026-05-04 01:40 43.04935 14.61684 37108 ft 451 kts 210°
2026-05-04 01:41 42.99320 14.57834 37095 ft 451 kts 210°
2026-05-04 01:41 42.93741 14.54016 37097 ft 451 kts 210°
2026-05-04 01:42 42.88125 14.50178 37097 ft 451 kts 210°
2026-05-04 01:42 42.82506 14.46349 37099 ft 452 kts 210°
2026-05-04 01:43 42.76885 14.42525 37103 ft 452 kts 210°
2026-05-04 01:43 42.71261 14.38709 37101 ft 452 kts 210°
2026-05-04 01:44 42.65635 14.34898 37102 ft 451 kts 210°
2026-05-04 01:44 42.60012 14.31096 37105 ft 451 kts 210°
2026-05-04 01:45 42.54395 14.27306 37102 ft 451 kts 210°
2026-05-04 01:45 42.45959 14.21630 37101 ft 451 kts 210°
2026-05-04 01:46 42.40350 14.17864 37100 ft 448 kts 210°
2026-05-04 01:46 42.34757 14.14118 37091 ft 448 kts 210°
2026-05-04 01:47 42.29173 14.10385 37109 ft 447 kts 210°
2026-05-04 01:47 42.23599 14.06664 37129 ft 447 kts 210°
2026-05-04 01:48 42.18020 14.02951 37152 ft 447 kts 210°
2026-05-04 01:48 42.12445 13.99244 37156 ft 447 kts 210°
2026-05-04 01:49 42.06864 13.95542 37160 ft 447 kts 210°
2026-05-04 01:49 42.01316 13.91870 37168 ft 447 kts 210°
2026-05-04 01:50 41.95733 13.88183 37178 ft 447 kts 210°
2026-05-04 01:50 41.90152 13.84501 37171 ft 445 kts 210°
2026-05-04 01:51 41.84627 13.80864 37187 ft 441 kts 210°
2026-05-04 01:51 41.79114 13.77244 37179 ft 441 kts 210°
2026-05-04 01:52 41.73602 13.73632 37187 ft 441 kts 210°
2026-05-04 01:52 41.68094 13.70027 37188 ft 441 kts 210°
2026-05-04 01:53 41.62579 13.66425 37177 ft 441 kts 210°
2026-05-04 01:53 41.57067 13.62831 37187 ft 440 kts 210°
2026-05-04 01:54 41.51564 13.59250 37177 ft 440 kts 210°
2026-05-04 01:54 41.46065 13.55681 37180 ft 440 kts 210°
2026-05-04 01:55 41.40563 13.52114 37184 ft 440 kts 210°
2026-05-04 01:55 41.35061 13.48554 37188 ft 439 kts 210°
2026-05-04 01:56 41.29616 13.45040 37166 ft 436 kts 210°
2026-05-04 01:56 41.24145 13.41513 37164 ft 437 kts 210°
2026-05-04 01:57 41.18678 13.37996 37158 ft 437 kts 209°
2026-05-04 01:57 41.13207 13.34483 37163 ft 437 kts 209°
2026-05-04 01:58 41.07738 13.30978 37164 ft 437 kts 209°
2026-05-04 01:58 41.02270 13.27481 37177 ft 437 kts 209°
2026-05-04 01:59 40.96792 13.23984 37176 ft 437 kts 209°
2026-05-04 01:59 40.91308 13.20489 37161 ft 437 kts 209°
2026-05-04 02:00 40.85828 13.17002 37170 ft 437 kts 209°
2026-05-04 02:00 40.80340 13.13518 37164 ft 438 kts 209°
2026-05-04 02:01 40.74860 13.10045 37174 ft 436 kts 208°
2026-05-04 02:01 40.69429 13.06609 37177 ft 436 kts 208°
2026-05-04 02:02 40.63954 13.03152 37174 ft 436 kts 208°
2026-05-04 02:02 40.58483 12.99703 37171 ft 436 kts 208°
2026-05-04 02:03 40.53021 12.96265 37175 ft 435 kts 208°
2026-05-04 02:03 40.47555 12.92833 37176 ft 435 kts 208°
2026-05-04 02:04 40.42092 12.89408 37176 ft 435 kts 208°
2026-05-04 02:04 40.36619 12.85983 37175 ft 436 kts 208°
2026-05-04 02:05 40.31147 12.82566 37175 ft 436 kts 208°
2026-05-04 02:05 40.25665 12.79147 37176 ft 436 kts 208°
2026-05-04 02:06 40.20189 12.75739 37170 ft 435 kts 208°
2026-05-04 02:06 40.14721 12.72341 37174 ft 436 kts 208°
2026-05-04 02:07 40.09243 12.68944 37169 ft 436 kts 208°
2026-05-04 02:07 40.03764 12.65552 37171 ft 436 kts 208°
2026-05-04 02:08 39.98282 12.62165 37171 ft 436 kts 208°
2026-05-04 02:08 39.92803 12.58786 37170 ft 436 kts 208°
2026-05-04 02:09 39.87354 12.55431 37170 ft 436 kts 208°
2026-05-04 02:09 39.81869 12.52059 37170 ft 436 kts 208°
2026-05-04 02:10 39.76376 12.48689 37169 ft 437 kts 208°
2026-05-04 02:10 39.70873 12.45319 37166 ft 437 kts 208°
2026-05-04 02:11 39.65370 12.41953 37167 ft 437 kts 208°
2026-05-04 02:11 39.59875 12.38599 37171 ft 436 kts 209°
2026-05-04 02:12 39.54379 12.35251 37171 ft 436 kts 209°
2026-05-04 02:12 39.48881 12.31907 37168 ft 436 kts 209°
2026-05-04 02:13 39.43380 12.28568 37163 ft 436 kts 209°
2026-05-04 02:13 39.37884 12.25236 37153 ft 437 kts 209°
2026-05-04 02:14 39.32407 12.21923 37166 ft 438 kts 209°
2026-05-04 02:14 39.26894 12.18594 37163 ft 438 kts 209°
2026-05-04 02:15 39.21380 12.15270 37162 ft 437 kts 209°
2026-05-04 02:15 39.16789 12.12506 37152 ft 437 kts 209°
2026-05-04 02:16 39.11262 12.09184 37168 ft 439 kts 209°
2026-05-04 02:16 39.05731 12.05867 37165 ft 439 kts 209°
2026-05-04 02:17 39.00193 12.02549 37154 ft 439 kts 209°
2026-05-04 02:17 38.94642 11.99230 37147 ft 441 kts 210°
2026-05-04 02:18 38.89066 11.95903 37164 ft 442 kts 209°
2026-05-04 02:18 38.83489 11.92580 37162 ft 442 kts 209°
2026-05-04 02:19 38.77909 11.89263 37155 ft 442 kts 209°
2026-05-04 02:19 38.72333 11.85951 37145 ft 442 kts 210°
2026-05-04 02:20 38.66790 11.82666 37154 ft 442 kts 210°
2026-05-04 02:20 38.61213 11.79368 37154 ft 442 kts 210°
2026-05-04 02:21 38.55634 11.76072 37157 ft 442 kts 210°
2026-05-04 02:21 38.50055 11.72779 37153 ft 441 kts 210°
2026-05-04 02:22 38.44475 11.69496 37147 ft 441 kts 210°
2026-05-04 02:22 38.38894 11.66216 37137 ft 442 kts 210°
2026-05-04 02:23 38.33291 11.62928 37147 ft 444 kts 210°
2026-05-04 02:23 38.27685 11.59645 37139 ft 444 kts 211°
2026-05-04 02:24 38.22070 11.56361 37142 ft 444 kts 211°
2026-05-04 02:24 38.16451 11.53081 37143 ft 444 kts 211°
2026-05-04 02:25 38.10860 11.49822 37140 ft 444 kts 211°
2026-05-04 02:25 38.05240 11.46550 37137 ft 445 kts 211°
2026-05-04 02:26 37.99605 11.43278 37135 ft 445 kts 211°
2026-05-04 02:26 37.93968 11.40014 37134 ft 446 kts 210°
2026-05-04 02:27 37.90975 11.38846 37134 ft 455 kts 198°
2026-05-04 02:27 37.87884 11.37960 37113 ft 455 kts 200°
2026-05-04 02:27 37.81725 11.36090 37141 ft 456 kts 200°
2026-05-04 02:28 37.75550 11.34247 37133 ft 456 kts 200°
2026-05-04 02:28 37.69416 11.32425 37135 ft 456 kts 200°
2026-05-04 02:29 37.63231 11.30587 37109 ft 456 kts 200°
2026-05-04 02:29 37.57034 11.28748 37122 ft 458 kts 200°
2026-05-04 02:30 37.50829 11.26909 37126 ft 458 kts 200°
2026-05-04 02:30 37.44603 11.25064 37026 ft 463 kts 200°
2026-05-04 02:31 37.41462 11.24136 36718 ft 464 kts 201°
2026-05-04 02:31 37.38350 11.23216 36452 ft 465 kts 201°
2026-05-04 02:31 37.35196 11.22286 36191 ft 466 kts 201°
2026-05-04 02:31 37.32030 11.21353 35931 ft 468 kts 201°
2026-05-04 02:32 37.28861 11.20419 35675 ft 469 kts 201°
2026-05-04 02:32 37.25700 11.19487 35170 ft 465 kts 201°
2026-05-04 02:32 37.22529 11.18553 34145 ft 474 kts 200°
2026-05-04 02:32 37.19281 11.17599 32935 ft 483 kts 200°
2026-05-04 02:33 37.16009 11.16641 32228 ft 481 kts 200°
2026-05-04 02:33 37.12767 11.15689 31603 ft 477 kts 200°
2026-05-04 02:33 37.09533 11.14741 30762 ft 478 kts 199°
2026-05-04 02:33 37.06282 11.13789 29700 ft 483 kts 199°
2026-05-04 02:34 37.02987 11.12825 28645 ft 486 kts 199°
2026-05-04 02:34 36.99709 11.11867 27957 ft 481 kts 198°
2026-05-04 02:34 36.96472 11.10922 27297 ft 476 kts 198°
2026-05-04 02:34 36.93259 11.09982 26596 ft 472 kts 198°
2026-05-04 02:35 36.90080 11.09049 25924 ft 468 kts 198°
2026-05-04 02:35 36.86921 11.08078 25163 ft 466 kts 198°
2026-05-04 02:35 36.83786 11.07119 24535 ft 462 kts 198°
2026-05-04 02:35 36.80670 11.06170 23880 ft 459 kts 198°
2026-05-04 02:36 36.77571 11.05226 23110 ft 457 kts 198°
2026-05-04 02:36 36.74498 11.04289 22421 ft 452 kts 198°
2026-05-04 02:36 36.71453 11.03364 21751 ft 448 kts 198°
2026-05-04 02:36 36.68431 11.02454 21003 ft 446 kts 198°
2026-05-04 02:37 36.65428 11.01550 20417 ft 441 kts 198°
2026-05-04 02:37 36.62462 11.00657 19808 ft 437 kts 198°
2026-05-04 02:37 36.59518 10.99772 19192 ft 434 kts 198°
2026-05-04 02:37 36.56593 10.98893 18569 ft 431 kts 198°
2026-05-04 02:38 36.53681 10.98019 17877 ft 429 kts 197°
2026-05-04 02:38 36.50787 10.97151 17241 ft 426 kts 197°
2026-05-04 02:38 36.47922 10.96292 16620 ft 422 kts 197°
2026-05-04 02:38 36.45072 10.95439 15931 ft 422 kts 197°
2026-05-04 02:39 36.42227 10.94587 15300 ft 420 kts 197°
2026-05-04 02:39 36.39394 10.93740 14702 ft 418 kts 197°
2026-05-04 02:39 36.36570 10.92895 14122 ft 416 kts 197°
2026-05-04 02:39 36.33930 10.91650 13425 ft 409 kts 213°
2026-05-04 02:40 36.31751 10.89460 12762 ft 400 kts 231°
2026-05-04 02:40 36.30133 10.86708 12264 ft 392 kts 239°
2026-05-04 02:40 36.28629 10.83922 11762 ft 387 kts 239°
2026-05-04 02:40 36.27167 10.81177 11492 ft 375 kts 239°
2026-05-04 02:41 36.25766 10.78521 11303 ft 363 kts 240°
2026-05-04 02:41 36.24414 10.75942 11112 ft 352 kts 240°
2026-05-04 02:41 36.23103 10.73434 10929 ft 341 kts 240°
2026-05-04 02:41 36.21831 10.71006 10760 ft 332 kts 239°
2026-05-04 02:42 36.20592 10.68639 10582 ft 322 kts 240°
2026-05-04 02:42 36.19391 10.66348 10416 ft 313 kts 239°
2026-05-04 02:42 36.18222 10.64119 10257 ft 304 kts 240°
2026-05-04 02:42 36.17085 10.61949 10096 ft 296 kts 240°
2026-05-04 02:43 36.15978 10.59838 9858 ft 290 kts 240°
2026-05-04 02:43 36.14879 10.57747 9513 ft 289 kts 239°
2026-05-04 02:43 36.13788 10.55671 9197 ft 286 kts 239°
2026-05-04 02:43 36.12720 10.53640 8889 ft 284 kts 239°
2026-05-04 02:44 36.11633 10.51572 8581 ft 282 kts 239°
2026-05-04 02:44 36.10584 10.49577 8285 ft 279 kts 239°
2026-05-04 02:44 36.09527 10.47573 7986 ft 277 kts 239°
2026-05-04 02:44 36.08482 10.45587 7700 ft 274 kts 238°
2026-05-04 02:45 36.07453 10.43613 7401 ft 272 kts 242°
2026-05-04 02:45 36.06671 10.41502 7102 ft 269 kts 248°
2026-05-04 02:45 36.05934 10.39384 6847 ft 266 kts 247°
2026-05-04 02:45 36.05191 10.37299 6569 ft 264 kts 247°
2026-05-04 02:46 36.04448 10.35238 6278 ft 262 kts 246°
2026-05-04 02:46 36.03706 10.33199 6040 ft 257 kts 245°
2026-05-04 02:46 36.02982 10.31223 5974 ft 246 kts 245°
2026-05-04 02:46 36.02289 10.29337 5868 ft 237 kts 245°
2026-05-04 02:47 36.01620 10.27519 5733 ft 228 kts 245°
2026-05-04 02:47 36.00977 10.25771 5610 ft 220 kts 245°
2026-05-04 02:47 36.00356 10.24085 5490 ft 211 kts 244°
2026-05-04 02:47 35.99761 10.22472 5357 ft 202 kts 245°
2026-05-04 02:48 35.99510 10.20798 5135 ft 201 kts 276°
2026-05-04 02:48 36.00074 10.19234 4889 ft 204 kts 308°
2026-05-04 02:48 36.01231 10.18268 4638 ft 208 kts 337°
2026-05-04 02:48 36.02624 10.17755 4461 ft 207 kts 340°
2026-05-04 02:49 36.04012 10.17264 4330 ft 209 kts 341°
2026-05-04 02:49 36.05464 10.17036 4140 ft 214 kts
2026-05-04 02:49 36.06844 10.17731 3849 ft 219 kts 38°
2026-05-04 02:49 36.07743 10.19199 3617 ft 213 kts 71°
2026-05-04 02:50 36.07910 10.20978 3332 ft 207 kts 100°
2026-05-04 02:50 36.07738 10.22725 3061 ft 204 kts 99°
2026-05-04 02:50 36.07660 10.24469 2791 ft 203 kts 96°
2026-05-04 02:50 36.07646 10.26202 2532 ft 201 kts 95°
2026-05-04 02:51 36.07642 10.27924 2263 ft 200 kts 95°
2026-05-04 02:51 36.07635 10.29635 1996 ft 198 kts 96°
2026-05-04 02:51 36.07631 10.31282 1743 ft 185 kts 97°
2026-05-04 02:51 36.07622 10.32830 1481 ft 176 kts 97°
2026-05-04 02:52 36.07616 10.34294 1267 ft 163 kts 96°
2026-05-04 02:52 36.07616 10.35677 1027 ft 161 kts 95°
2026-05-04 02:52 36.07625 10.37054 847 ft 158 kts 94°
2026-05-04 02:52 36.07596 10.38385 614 ft 153 kts 94°
2026-05-04 02:53 36.07600 10.39673 411 ft 148 kts 92°
2026-05-04 02:53 36.07589 10.40986 236 ft 155 kts 91°
2026-05-04 02:53 36.07582 10.42286 48 ft 145 kts 93°
2026-05-04 02:53 36.07577 10.43345 32 ft 93 kts 90°
2026-05-04 02:54 36.07576 10.43982 32 ft 56 kts 89°
2026-05-04 02:54 36.07634 10.44325 33 ft 39 kts 64°
2026-05-04 02:54 36.07715 10.44412 35 ft 10 kts 342°
2026-05-04 02:54 36.07745 10.44342 36 ft 11 kts 274°
2026-05-04 02:55 36.07745 10.44104 34 ft 17 kts 270°
2026-05-04 02:55 36.07747 10.43991 34 ft 7 kts 276°
2026-05-04 02:55 36.07781 10.43938 34 ft 9 kts 342°
2026-05-04 02:56 36.07819 10.43936 34 ft 5 kts
2026-05-04 02:56 36.07877 10.43936 32 ft 13 kts
2026-05-04 02:56 36.07982 10.43939 29 ft 9 kts
2026-05-04 02:56 36.08041 10.43905 26 ft 12 kts 294°
2026-05-04 02:57 36.08044 10.43786 28 ft 15 kts 270°
2026-05-04 02:57 36.08044 10.43725 27 ft 3 kts 270°
2026-05-04 02:57 36.08042 10.43703 27 ft 4 kts 251°
2026-05-04 02:57 36.08023 10.43680 27 ft 2 kts 222°
2026-05-04 02:58 36.08022 10.43674 27 ft 1 kts 263°
2026-05-04 02:58 36.08019 10.43668 27 ft 0 kts 232°
2026-05-04 02:58 36.08018 10.43668 27 ft 1 kts 210°
2026-05-04 02:58 36.08004 10.43677 27 ft 6 kts 153°
2026-05-04 02:59 36.07972 10.43678 28 ft 4 kts 211°
2026-05-04 02:59 36.07960 10.43660 27 ft 0 kts 229°
2026-05-04 02:59 36.07958 10.43657 27 ft 1 kts 227°
2026-05-04 02:59 36.07956 10.43654 27 ft 0 kts 228°